Hagen — V2PB3 — position and weather

sailwx.info

Track history (hours):
 
Tides and Currents Weather Stations Pressure Air Temp Water Temp Dewpoint Dewpoint Depression Visibility Wind Speed Wind Dir Waves Ship Positions

Hagen

Last reported at 2014-Aug-21 02:10 UTC. Time now 2014-Aug-21 10:12 UTC.
Position N 40°59' E 028°60'.

Length 89 m; draft 3.9 m.

Type: Cargo ship. MMSI: 304010898.

Date/timePositionNaut miles runAvg speedWind from/ knotsBaromVisibWave heightAir tempDewpointWater temp
2014-Aug-21 02:10N 40°59' E 028°60'5 8.4
2014-Aug-21 01:32N 40°54' E 028°57'10 8.6
2014-Aug-21 00:24N 40°48' E 028°47'4 4.3
2014-Aug-20 23:33N 40°44' E 028°45'1 0.6
2014-Aug-20 22:32N 40°45' E 028°46'1 0.6
2014-Aug-20 21:33N 40°45' E 028°47'1 0.8
2014-Aug-20 20:28N 40°45' E 028°48'1 0.9
2014-Aug-20 19:32N 40°45' E 028°49'1 1.1
2014-Aug-20 18:26N 40°45' E 028°50'1 0.9
2014-Aug-20 17:33N 40°45' E 028°51'1 0.8
2014-Aug-20 16:33N 40°45' E 028°52'1 0.5
2014-Aug-20 15:33N 40°45' E 028°53'0 0.3
2014-Aug-20 14:30N 40°45' E 028°53'4 4.5
2014-Aug-20 13:33N 40°49' E 028°50'  
2014-Aug-17 18:33N 37°08' E 026°04'8 8.1
2014-Aug-17 17:33N 37°02' E 026°10'8 7.8
2014-Aug-17 16:33N 36°55' E 026°16'11 8.0
2014-Aug-17 15:10N 36°47' E 026°25'6 8.4
2014-Aug-17 14:27N 36°43' E 026°30'230 7.6
2014-Aug-16 08:08N 33°26' E 028°57'13 8.0
2014-Aug-16 06:33N 33°15' E 029°03'17 7.7
2014-Aug-16 04:20N 32°59' E 029°12'6 8.1
2014-Aug-16 03:33N 32°54' E 029°15'26 8.1
2014-Aug-16 00:19N 32°30' E 029°28'15 8.2
2014-Aug-15 22:28N 32°16' E 029°36'8 8.1
2014-Aug-15 21:29N 32°09' E 029°40'8 8.2
2014-Aug-15 20:28N 32°01' E 029°44'8 8.1
2014-Aug-15 19:28N 31°54' E 029°48'8 8.0
2014-Aug-15 18:31N 31°48' E 029°52'16 7.9
2014-Aug-15 16:33N 31°33' E 030°00'9 8.8
2014-Aug-15 15:33N 31°25' E 030°04'3 2.1
2014-Aug-15 14:16N 31°23' E 030°05'0 0.0
2014-Aug-15 09:25N 31°23' E 030°05'0 0.0
2014-Aug-15 07:22N 31°23' E 030°05'0 0.0
2014-Aug-15 06:22N 31°23' E 030°05'0 0.0
2014-Aug-15 00:16N 31°23' E 030°05'0 0.0
2014-Aug-14 23:31N 31°23' E 030°05'0 0.0
2014-Aug-14 21:31N 31°23' E 030°05'0 0.0
2014-Aug-14 20:28N 31°23' E 030°05'0 0.0
2014-Aug-14 19:31N 31°23' E 030°05'0 0.0
2014-Aug-14 18:31N 31°23' E 030°05'0 0.0
2014-Aug-14 16:28N 31°23' E 030°05'0 0.0
2014-Aug-14 11:28N 31°23' E 030°05'0 0.0
2014-Aug-13 21:16N 31°23' E 030°05'0 0.0
2014-Aug-13 20:22N 31°23' E 030°05'0 0.0
2014-Aug-13 19:19N 31°23' E 030°05'0 0.0
2014-Aug-13 18:25N 31°23' E 030°05'0 0.0
2014-Aug-13 17:31N 31°23' E 030°05'0 0.0
2014-Aug-13 16:28N 31°23' E 030°05'0 0.0
2014-Aug-13 15:31N 31°23' E 030°05'0 0.0
2014-Aug-13 14:31N 31°23' E 030°05'0 0.0
2014-Aug-13 13:25N 31°23' E 030°05'0 0.0
2014-Aug-13 12:28N 31°23' E 030°05'0 0.0
2014-Aug-13 11:28N 31°23' E 030°05'0 0.0
2014-Aug-13 10:31N 31°23' E 030°05'0 0.0
2014-Aug-13 09:28N 31°23' E 030°05'0 0.0
2014-Aug-13 08:31N 31°23' E 030°05'0 0.0
2014-Aug-13 07:31N 31°23' E 030°05'0 0.0
2014-Aug-13 06:31N 31°23' E 030°05'0 0.0
2014-Aug-13 02:10N 31°23' E 030°05'0 0.0
2014-Aug-13 01:31N 31°23' E 030°05'0 0.0
2014-Aug-12 23:31N 31°23' E 030°05'0 0.0
2014-Aug-12 22:28N 31°23' E 030°05'0 0.0
2014-Aug-12 21:28N 31°23' E 030°05'0 0.0
2014-Aug-12 20:28N 31°23' E 030°05'0 0.0
2014-Aug-12 19:34N 31°23' E 030°05'0 0.0
2014-Aug-12 18:22N 31°23' E 030°05'0 0.0
2014-Aug-12 16:07N 31°23' E 030°05'0 0.0
2014-Aug-12 15:28N 31°23' E 030°05'0 0.0
2014-Aug-12 12:31N 31°23' E 030°05'3 0.2
2014-Aug-11 23:27N 31°20' E 030°05'  
Track history (hours):
 
Tides and Currents Weather Stations Pressure Air Temp Water Temp Dewpoint Dewpoint Depression Visibility Wind Speed Wind Dir Waves Ship Positions

Hagen

Last reported at 2014-Aug-21 02:10 UTC. Time now 2014-Aug-21 10:12 UTC.
Position N 40°59' E 028°60'.

Length 89 m; draft 3.9 m.

Type: Cargo ship. MMSI: 304010898.

Date/timePositionNaut miles runAvg speedWind from/ knotsBaromVisibWave heightAir tempDewpointWater temp
2014-Aug-21 02:10N 40°59' E 028°60'5 8.4
2014-Aug-21 01:32N 40°54' E 028°57'10 8.6
2014-Aug-21 00:24N 40°48' E 028°47'4 4.3
2014-Aug-20 23:33N 40°44' E 028°45'1 0.6
2014-Aug-20 22:32N 40°45' E 028°46'1 0.6
2014-Aug-20 21:33N 40°45' E 028°47'1 0.8
2014-Aug-20 20:28N 40°45' E 028°48'1 0.9
2014-Aug-20 19:32N 40°45' E 028°49'1 1.1
2014-Aug-20 18:26N 40°45' E 028°50'1 0.9
2014-Aug-20 17:33N 40°45' E 028°51'1 0.8
2014-Aug-20 16:33N 40°45' E 028°52'1 0.5
2014-Aug-20 15:33N 40°45' E 028°53'0 0.3
2014-Aug-20 14:30N 40°45' E 028°53'4 4.5
2014-Aug-20 13:33N 40°49' E 028°50'  
2014-Aug-17 18:33N 37°08' E 026°04'8 8.1
2014-Aug-17 17:33N 37°02' E 026°10'8 7.8
2014-Aug-17 16:33N 36°55' E 026°16'11 8.0
2014-Aug-17 15:10N 36°47' E 026°25'6 8.4
2014-Aug-17 14:27N 36°43' E 026°30'230 7.6
2014-Aug-16 08:08N 33°26' E 028°57'13 8.0
2014-Aug-16 06:33N 33°15' E 029°03'17 7.7
2014-Aug-16 04:20N 32°59' E 029°12'6 8.1
2014-Aug-16 03:33N 32°54' E 029°15'26 8.1
2014-Aug-16 00:19N 32°30' E 029°28'15 8.2
2014-Aug-15 22:28N 32°16' E 029°36'8 8.1
2014-Aug-15 21:29N 32°09' E 029°40'8 8.2
2014-Aug-15 20:28N 32°01' E 029°44'8 8.1
2014-Aug-15 19:28N 31°54' E 029°48'8 8.0
2014-Aug-15 18:31N 31°48' E 029°52'16 7.9
2014-Aug-15 16:33N 31°33' E 030°00'9 8.8
2014-Aug-15 15:33N 31°25' E 030°04'3 2.1
2014-Aug-15 14:16N 31°23' E 030°05'0 0.0
2014-Aug-15 09:25N 31°23' E 030°05'0 0.0
2014-Aug-15 07:22N 31°23' E 030°05'0 0.0
2014-Aug-15 06:22N 31°23' E 030°05'0 0.0
2014-Aug-15 00:16N 31°23' E 030°05'0 0.0
2014-Aug-14 23:31N 31°23' E 030°05'0 0.0
2014-Aug-14 21:31N 31°23' E 030°05'0 0.0
2014-Aug-14 20:28N 31°23' E 030°05'0 0.0
2014-Aug-14 19:31N 31°23' E 030°05'0 0.0
2014-Aug-14 18:31N 31°23' E 030°05'0 0.0
2014-Aug-14 16:28N 31°23' E 030°05'0 0.0
2014-Aug-14 11:28N 31°23' E 030°05'0 0.0
2014-Aug-13 21:16N 31°23' E 030°05'0 0.0
2014-Aug-13 20:22N 31°23' E 030°05'0 0.0
2014-Aug-13 19:19N 31°23' E 030°05'0 0.0
2014-Aug-13 18:25N 31°23' E 030°05'0 0.0
2014-Aug-13 17:31N 31°23' E 030°05'0 0.0
2014-Aug-13 16:28N 31°23' E 030°05'0 0.0
2014-Aug-13 15:31N 31°23' E 030°05'0 0.0
2014-Aug-13 14:31N 31°23' E 030°05'0 0.0
2014-Aug-13 13:25N 31°23' E 030°05'0 0.0
2014-Aug-13 12:28N 31°23' E 030°05'0 0.0
2014-Aug-13 11:28N 31°23' E 030°05'0 0.0
2014-Aug-13 10:31N 31°23' E 030°05'0 0.0
2014-Aug-13 09:28N 31°23' E 030°05'0 0.0
2014-Aug-13 08:31N 31°23' E 030°05'0 0.0
2014-Aug-13 07:31N 31°23' E 030°05'0 0.0
2014-Aug-13 06:31N 31°23' E 030°05'0 0.0
2014-Aug-13 02:10N 31°23' E 030°05'0 0.0
2014-Aug-13 01:31N 31°23' E 030°05'0 0.0
2014-Aug-12 23:31N 31°23' E 030°05'0 0.0
2014-Aug-12 22:28N 31°23' E 030°05'0 0.0
2014-Aug-12 21:28N 31°23' E 030°05'0 0.0
2014-Aug-12 20:28N 31°23' E 030°05'0 0.0
2014-Aug-12 19:34N 31°23' E 030°05'0 0.0
2014-Aug-12 18:22N 31°23' E 030°05'0 0.0
2014-Aug-12 16:07N 31°23' E 030°05'0 0.0
2014-Aug-12 15:28N 31°23' E 030°05'0 0.0
2014-Aug-12 12:31N 31°23' E 030°05'3 0.2
2014-Aug-11 23:27N 31°20' E 030°05'  

Dump ship's entire track history